Weather History for KEST - February, 2014

Change the Weather History Date:

Thursday, February 13, 2014

  Actual Average Record
Temperature  
Mean Temperature 21 °F 20 °F  
Max Temperature 36 °F 29 °F 60 °F (1990)
Min Temperature 5 °F 11 °F -15 °F (1970)
Degree Days  
Heating Degree Days 44 45  
Month to date heating degree days 804 609  
Since 1 July heating degree days 5707 5280  
Cooling Degree Days 0 0  
Month to date cooling degree days 0 0  
Year to date cooling degree days 0 0  
Moisture  
Dew Point 15 °F    
Average Humidity 84    
Maximum Humidity 100    
Minimum Humidity 67    
Precipitation  
Precipitation T in 0.01 in 0.57 in (2005)
Month to date precipitation 0.07 0.17  
Sea Level Pressure  
Sea Level Pressure 29.70 in    
Wind  
Wind Speed 20 mph (West)    
Max Wind Speed 40 mph    
Max Gust Speed 47 mph    
Visibility 8 miles    
Events Snow    
T = Trace of Precipitation, MM = Missing Value Source: NWS Daily Summary

Daily Weather History Graph

Daily Weather History Graph

Search for Another Location

Airport or City:

Trip Planner

Search our weather history database for the weather conditions in past years. The results will help you decide how hot, cold, wet, or windy it might be!

Date:

Astronomy

Feb. 13, 2014 Rise Set
Actual Time 7:19 AM CST 5:47 PM CST
Civil Twilight 6:50 AM CST 6:16 PM CST
Nautical Twilight 6:16 AM CST 6:50 PM CST
Astronomical Twilight 5:43 AM CST 7:23 PM CST
Moon 4:56 PM CST (2/13) 6:13 AM CST (2/13)
Length of Visible Light 11h 26m
Length of Day
10h 27m
Waxing Gibbous, 99% of the Moon is Illuminated
Feb 13
Waxing Gibbous
Feb 14
Full
Feb 22
Last Quarter
Mar 1
New
Mar 8
First Quarter

Hourly Weather History & Observations

Time (CST) Temp. Windchill Dew Point Humidity Pressure Visibility Wind Dir Wind Speed Gust Speed Precip Events Conditions
12:52 AM 21.0 °F 5.4 °F 19.9 °F 96% 29.76 in 4.0 mi South 20.7 mph - N/A   Overcast
1:27 AM 19.9 °F 5.2 °F 19.9 °F 100% 29.67 in 4.0 mi South 17.3 mph - N/A   Mostly Cloudy
1:52 AM 21.0 °F 5.0 °F 19.9 °F 96% 29.71 in 4.0 mi South 21.9 mph - N/A   Mostly Cloudy
2:52 AM 21.9 °F 6.5 °F 19.9 °F 92% 29.66 in 4.0 mi South 20.7 mph - N/A   Partly Cloudy
3:52 AM 24.1 °F 8.0 °F 21.0 °F 88% 29.59 in 5.0 mi South 25.3 mph - N/A   Partly Cloudy
4:52 AM 26.1 °F 11.3 °F 23.0 °F 88% 29.58 in 7.0 mi SSW 23.0 mph 32.2 mph N/A   Clear
5:52 AM 26.1 °F 12.7 °F 23.0 °F 88% 29.57 in 8.0 mi SSW 18.4 mph 23.0 mph N/A   Clear
6:52 AM 27.0 °F 13.9 °F 24.1 °F 89% 29.57 in 10.0 mi WSW 18.4 mph - N/A   Clear
7:52 AM 27.0 °F 14.7 °F 24.1 °F 89% 29.57 in 10.0 mi WSW 16.1 mph - N/A   Clear
8:52 AM 34.0 °F 22.1 °F 28.0 °F 79% 29.59 in 10.0 mi West 21.9 mph 27.6 mph N/A   Clear
9:52 AM 35.1 °F 22.5 °F 28.9 °F 78% 29.62 in 10.0 mi WNW 26.5 mph 39.1 mph N/A   Mostly Cloudy
10:30 AM 30.9 °F 14.9 °F 23.0 °F 72% 29.60 in 10.0 mi WNW 36.8 mph 47.2 mph N/A   Scattered Clouds
10:52 AM 28.9 °F 12.8 °F 21.9 °F 75% 29.66 in 3.0 mi NW 33.4 mph 47.2 mph N/A   Haze
11:52 AM 23.0 °F 5.7 °F 17.1 °F 78% 29.70 in 10.0 mi WNW 28.8 mph - N/A   Partly Cloudy
12:21 PM 21.9 °F 4.8 °F 16.0 °F 78% 29.65 in 9.0 mi WNW 26.5 mph 36.8 mph N/A   Mostly Cloudy
12:52 PM 19.9 °F 3.2 °F 15.1 °F 81% 29.70 in 3.0 mi WNW 23.0 mph 34.5 mph 0.00 in Snow Light Snow
1:52 PM 19.0 °F 0.0 °F 10.9 °F 71% 29.73 in 10.0 mi WNW 29.9 mph 39.1 mph 0.00 in   Scattered Clouds
2:52 PM 19.0 °F 0.6 °F 10.9 °F 71% 29.73 in 10.0 mi NW 27.6 mph - N/A   Mostly Cloudy
3:16 PM 18.0 °F 0.2 °F 10.9 °F 74% 29.68 in 10.0 mi WNW 24.2 mph 31.1 mph N/A   Scattered Clouds
3:52 PM 17.1 °F 0.1 °F 10.0 °F 74% 29.76 in 10.0 mi NW 20.7 mph 28.8 mph N/A   Scattered Clouds
4:52 PM 16.0 °F -2.1 °F 8.1 °F 71% 29.77 in 10.0 mi WNW 23.0 mph - N/A   Clear
5:52 PM 12.0 °F -2.7 °F 6.1 °F 77% 29.79 in 10.0 mi WNW 12.7 mph - N/A   Clear
6:52 PM 10.0 °F -3.7 °F 5.0 °F 80% 29.81 in 10.0 mi WNW 10.4 mph - N/A   Clear
7:52 PM 8.1 °F -5.3 °F 3.9 °F 83% 29.81 in 10.0 mi NW 9.2 mph - N/A   Clear
8:52 PM 7.0 °F -6.6 °F 3.0 °F 84% 29.80 in 10.0 mi NW 9.2 mph - N/A   Clear
9:52 PM 5.0 °F -6.9 °F 1.9 °F 87% 29.81 in 10.0 mi NW 6.9 mph - N/A   Clear
10:52 PM 7.0 °F -8.3 °F 3.0 °F 84% 29.81 in 10.0 mi NNW 11.5 mph - N/A   Clear
11:52 PM 7.0 °F -6.6 °F 3.0 °F 84% 29.81 in 10.0 mi NNW 9.2 mph - N/A   Clear